Regional Weather Roundup
Issued by NWS Goodland, KS

Home | Current Version | Previous Version | Graphics & Text | Print | Product List | Glossary On
Versions: 1 2 3 4 5 6 7 8 9 10 11 12 13 14 15 16 17 18 19 20 21 22 23 24 25 26 27 28 29 30 31 32 33 34 35 36 37 38 39 40 41 42 43 44 45 46 47 48 49 50
000
ASUS43 KGLD 220908
RWRGLD

GOODLAND FORECAST AREA HOURLY WEATHER ROUNDUP
NATIONAL WEATHER SERVICE GOODLAND KS
300 AM MDT FRI SEP 22 2017

...OFFICIAL OBSERVATIONS...

CITY           SKY/WX    TMP DP  RH WIND       PRES   REMARKS
GOODLAND KS    CLEAR     65  48  54 S15       29.72S
HILL CITY KS   CLEAR     79  68  69 S20G31    29.74F
IMPERIAL NEB   CLEAR     66  43  43 S9        29.67S
MCCOOK NEB     LGT RAIN  78  65  63 S18G28    29.68S
AKRON CO       CLEAR     72  24  16 SW20G25   29.69S
BURLINGTON CO  CLEAR     60  41  49 S14       29.74S
LIMON CO       CLEAR     55  26  32 SE9       29.78F
$$

...UNOFFICIAL OBSERVATIONS...

CITY           SKY/WX    TMP DP  RH WIND       PRES   REMARKS
LENORA KS        N/A     78  32  18 MISG        N/A
NORTON KS      CLEAR     75  61  60 S22G29    29.72S
SHARON SPRINGS   N/A     68  54  61 S18G29      N/A
KIT CARSON CO    N/A     56  35  46 CALM        N/A
YUMA CO        FAIR      57  32  38 SW8       29.68S
$$




USA.gov is the U.S. government's official web portal to all federal, state and local government web resources and services.